Regional Weather Roundup
Issued by NWS

Home | Current Version | Previous Version | Graphics & Text | Print | Product List | Glossary Off
Versions: 1 2 3 4 5 6 7 8 9 10 11 12 13 14 15 16 17 18 19 20 21 22 23 24 25 26 27 28 29 30 31 32 33 34 35 36 37 38 39 40 41 42 43 44 45 46 47 48 49 50

000
ASUS43 KTOP 202059
RWRKS

WEATHER ROUNDUP FOR KANSAS
NATIONAL WEATHER SERVICE GOODLAND KS
400 PM CDT SUN APR 20 2014

NOTE:  "FAIR" INDICATES FEW OR NO CLOUDS BELOW 12,000 FEET WITH NO
SIGNIFICANT WEATHER AND/OR OBSTRUCTIONS TO VISIBILITY.

KSZ001>006-013>018-027>032-041>047-202200-
NORTHWEST KANSAS

CITY           SKY/WX    TMP DP  RH WIND       PRES   REMARKS
GOODLAND       CLOUDY    72  46  39 CALM      29.95F
HAYS           CLOUDY    75  55  50 SE20G30   29.93F
HILL CITY      CLOUDY    80  49  33 S15G22    29.91F
RUSSELL        CLOUDY    73  52  47 S21       29.94F
$$

KSZ061>065-074>080-084>089-202200-
SOUTHWEST KANSAS

CITY           SKY/WX    TMP DP  RH WIND       PRES   REMARKS
DODGE CITY     PTSUNNY   74  51  44 SE16G26   29.93F
ELKHART          N/A    N/A N/A N/A MISG        N/A
GARDEN CITY    MOSUNNY   78  42  27 S20G26    29.90F
GREAT BEND     PTSUNNY   75  54  46 S23G30    29.94F
LIBERAL        MOSUNNY   79  48  34 S25G31    29.92F
$$

KSZ066>073-081>083-090>101-202200-
SOUTHEAST KANSAS

CITY           SKY/WX    TMP DP  RH WIND       PRES   REMARKS
CHANUTE        CLOUDY    72  54  53 S14       30.07F
COFFEYVILLE    CLOUDY    74  54  49 S14       30.06F
HUTCHINSON     LGT RAIN  65  59  81 SE9       30.01F
NEWTON         CLOUDY    64  55  72 S9        30.07F
PARSONS        CLOUDY    75  54  47 S12       30.08F
WICHITA INTL   LGT RAIN  67  59  75 SE9       30.03F
WICHITA JABRA  CLOUDY    66  60  81 SE10      30.04F
WINFIELD       CLOUDY    72  57  59 S10       30.04F
$$

KSZ007>012-019>026-033>040-048>060-102>105-202200-
NORTHEAST KANSAS

CITY           SKY/WX    TMP DP  RH WIND       PRES   REMARKS
CONCORDIA      CLOUDY    75  54  47 S18G26    29.97F
EMPORIA        LGT RAIN  65  59  81 S15       30.05R
LAWRENCE       CLOUDY    77  54  44 S10G21    30.02F
MANHATTAN      CLOUDY    75  55  49 SW15      30.00S
OLATHE IND     CLOUDY    76  53  44 S12       30.04F
OLATHE EXE     PTSUNNY   75  52  44 SW12      30.03F
SALINA         LGT RAIN  68  57  68 S16       30.01F
TOPEKA BILLARD CLOUDY    77  54  44 S14G21    30.01F
TOPEKA FORBES  CLOUDY    75  54  47 S16       30.01F
$$



USA.gov is the U.S. government's official web portal to all federal, state and local government web resources and services.